Regional Weather Roundup
Issued by NWS

Home | Current Version | Previous Version | Graphics & Text | Print | Product List | Glossary On
Versions: 1 2 3 4 5 6 7 8 9 10 11 12 13 14 15 16 17 18 19 20 21 22 23 24 25 26 27 28 29 30 31 32 33 34 35 36 37 38 39 40 41 42 43 44 45 46 47 48 49 50
000
ASUS43 KTOP 252359
RWRKS

WEATHER ROUNDUP FOR KANSAS
NATIONAL WEATHER SERVICE GOODLAND KS
700 PM CDT SAT APR 25 2015

NOTE:  "FAIR" INDICATES FEW OR NO CLOUDS BELOW 12,000 FEET WITH NO
SIGNIFICANT WEATHER AND/OR OBSTRUCTIONS TO VISIBILITY.

KSZ001>006-013>018-027>032-041>047-260100-
NORTHWEST KANSAS

CITY           SKY/WX    TMP DP  RH WIND       PRES   REMARKS
GOODLAND       MOSUNNY   69  43  38 E10       29.69F
6HR MIN TEMP:  66; 6HR MAX TEMP:  72;

HAYS           SUNNY     64  48  55 NE15      29.71R
HILL CITY      PTSUNNY   63  52  67 E15       29.72S
6HR MIN TEMP:  63; 6HR MAX TEMP:  72;

RUSSELL        MOSUNNY   62  53  72 NE15      29.70R
6HR MIN TEMP:  62; 6HR MAX TEMP:  68;

$$

KSZ061>065-074>080-084>089-260100-
SOUTHWEST KANSAS

CITY           SKY/WX    TMP DP  RH WIND       PRES   REMARKS
DODGE CITY     MOSUNNY   76  41  28 NE9       29.66S
6HR MIN TEMP:  73; 6HR MAX TEMP:  79;

ELKHART          N/A     75  33  21 E15         N/A
GARDEN CITY    SUNNY     75  38  26 NE9       29.65F
6HR MIN TEMP:  71; 6HR MAX TEMP:  76;

GREAT BEND     SUNNY     66  52  59 NE15      29.69R
LIBERAL        MOSUNNY   77  34  20 E6        29.66F
$$

KSZ066>073-081>083-090>101-260100-
SOUTHEAST KANSAS

CITY           SKY/WX    TMP DP  RH WIND       PRES   REMARKS
CHANUTE        PTSUNNY   66  55  67 N10       29.66R
6HR MIN TEMP:  66; 6HR MAX TEMP:  73;

COFFEYVILLE    SUNNY     72  53  51 N14       29.63R
6HR MIN TEMP:  72; 6HR MAX TEMP:  79;

HUTCHINSON     SUNNY     70  53  54 NE10      29.67R
6HR MIN TEMP:  69; 6HR MAX TEMP:  75;

MEDICINE LODGE   N/A     76  53  44 NE15      29.62S
NEWTON         MOSUNNY   64  52  63 NE13      29.71R
PARSONS        MOSUNNY   71  55  56 N12       29.65R
6HR MIN TEMP:  70; 6HR MAX TEMP:  77;

WICHITA INTL   MOSUNNY   71  53  52 N14       29.65S
6HR MIN TEMP:  71; 6HR MAX TEMP:  76;

WICHITA JABRA  SUNNY     70  53  54 N10       29.66R
6HR MIN TEMP:  69; 6HR MAX TEMP:  74;

WICHITA MCCONL MOSUNNY   70  54  56 N13       29.66R
WINFIELD       SUNNY     74  54  49 N15       29.64R
6HR MIN TEMP:  74; 6HR MAX TEMP:  79;

$$

KSZ007>012-019>026-033>040-048>060-102>105-260100-
NORTHEAST KANSAS

CITY           SKY/WX    TMP DP  RH WIND       PRES   REMARKS
EMPORIA        CLOUDY    57  53  86 N12       29.70R
6HR MIN TEMP:  57; 6HR MAX TEMP:  67;

LAWRENCE       CLOUDY    53  48  83 N9        29.71R
6HR MIN TEMP:  53; 6HR MAX TEMP:  66; 6HR PCP: TRACE;

MANHATTAN      CLOUDY    55  50  83 N7        29.73R
6HR MIN TEMP:  55; 6HR MAX TEMP:  61;

OLATHE IND     CLOUDY    53  50  89 N14       29.70R
6HR MIN TEMP:  53; 6HR MAX TEMP:  65; 6HR PCP:  0.01;

OLATHE EXE     CLOUDY    53  50  89 N14       29.69R
6HR MIN TEMP:  53; 6HR MAX TEMP:  65; 6HR PCP:  0.03;

SALINA         CLOUDY    62  52  69 N16       29.71R
6HR MIN TEMP:  62; 6HR MAX TEMP:  72;

TOPEKA BILLARD CLOUDY    53  49  86 N13       29.72R
6HR MIN TEMP:  53; 6HR MAX TEMP:  67; 6HR PCP: TRACE;

TOPEKA FORBES  CLOUDY    55  49  80 N13       29.71R
6HR MIN TEMP:  55; 6HR MAX TEMP:  67; 6HR PCP: TRACE;

$$



USA.gov is the U.S. government's official web portal to all federal, state and local government web resources and services.